This is the latest recevied weather packets stored in our database for station/object K9JWM. If no packets are shown the sender has not sent any weather packets the latest 10 day(s).
| Time | Temp. | Humidity | Pressure | Rain* | Wind** | Luminosity | Snow |
|---|---|---|---|---|---|---|---|
| 1778047330 | 1.11° C | 66% | 1012.6 hPa | 0 mm | - | - | - |
| 1778046430 | 1.11° C | 67% | 1012.6 hPa | 0 mm | - | - | - |
| 1778045530 | 1.67° C | 65% | 1012.4 hPa | 0 mm | - | - | - |
| 1778044629 | 2.22° C | 64% | 1012.3 hPa | 0 mm | - | - | - |
| 1778043731 | 2.22° C | 64% | 1012.1 hPa | 0 mm | - | - | - |
| 1778042830 | 2.22° C | 64% | 1012 hPa | 0 mm | - | - | - |
| 1778041930 | 2.78° C | 61% | 1011.9 hPa | 0 mm | - | - | - |
| 1778041029 | 2.78° C | 61% | 1011.9 hPa | 0 mm | - | - | - |
| 1778040131 | 2.78° C | 61% | 1011.9 hPa | 0 mm | - | - | - |
| 1778039230 | 3.33° C | 60% | 1012 hPa | 0 mm | - | - | - |
| 1778038330 | 3.33° C | 61% | 1011.9 hPa | 0 mm | - | - | - |
| 1778037431 | 3.33° C | 60% | 1011.9 hPa | 0 mm | - | - | - |
| 1778036530 | 3.33° C | 63% | 1011.8 hPa | 0 mm | - | - | - |
| 1778035629 | 3.33° C | 61% | 1011.8 hPa | 0 mm | - | - | - |
| 1778034729 | 3.33° C | 60% | 1011.8 hPa | 0 mm | - | - | - |
| 1778033831 | 3.89° C | 61% | 1011.5 hPa | 0 mm | - | - | - |
| 1778032930 | 3.89° C | 58% | 1011.4 hPa | 0 mm | - | - | - |
| 1778032030 | 4.44° C | 58% | 1011.2 hPa | 0 mm | - | - | - |
| 1778031130 | 4.44° C | 57% | 1011 hPa | 0 mm | - | - | - |
| 1778030231 | 4.44° C | 58% | 1010.8 hPa | 0 mm | - | - | - |
| 1778029329 | 4.44° C | 58% | 1010.6 hPa | 0 mm | - | - | - |
| 1778028431 | 5° C | 58% | 1010.6 hPa | 0 mm | - | - | - |
| 1778027531 | 5° C | 55% | 1010.5 hPa | 0 mm | - | - | - |
| 1778026631 | 5° C | 55% | 1010.5 hPa | 0 mm | - | - | - |
| 1778025729 | 5.56° C | 53% | 1010.2 hPa | 0 mm | - | - | - |
* Rain latest hour (hover to see other rain measurements)
** Current wind speed in m/s (hover to see current wind gust speed)